Date String (YYYY-MM-DD hh:mm:ss) UTC,Instrument flags,absolute air pressure of the measurement (hPa),sample flow rate (lpm),inlet stack bypass flow (lpm),air temperature of the measurement (°C),ambient temperature measured by the external sensor (°C),aerosol sample conditioner tube jacket temperature (°C),OPC LED temperature (°C),internal box temperature (°C),relative humidity of the measurement (%),span deviation,mass concentration of particles derived from Lorenz-Mie calculation of OPC scattering (μg/m³),mass concentration of particles derived from Lorenz-Mie calculation of OPC scattering (μg/m³),mass concentration of particles derived from Lorenz-Mie calculation of OPC scattering (μg/m³)
DateTimeUTC,F1_M11,P_M11,Q1_M11,Q2_M11,T1_M11,T2_M11,T3_M11,T4_M11,T5_M11,U1_M11,ZSPAN_M11,X0_M11,X2_M11,X1_M11
2024-01-25 08:00:00,SystemResetWarning,0826.6,5.01,000.00,022.4,021.4,000.0,030.8,023.8,15.4,0000.0,0005.84,0003.52,0003.37
2024-01-25 08:01:00,SystemResetWarning,0826.6,5.00,000.00,022.4,021.4,000.0,030.8,023.8,15.5,0000.0,0005.75,0003.38,0003.24
2024-01-25 08:02:00,SystemResetWarning,0826.6,5.00,000.00,022.4,021.5,000.0,030.8,023.8,15.6,0000.0,0005.88,0003.22,0003.05
2024-01-25 08:03:00,SystemResetWarning,0826.6,5.00,000.00,022.4,021.5,000.0,030.8,023.8,15.7,0000.0,0005.31,0002.93,0002.69
2024-01-25 08:04:00,SystemResetWarning,0826.6,4.99,000.00,022.4,021.5,000.0,030.8,023.8,15.7,0000.0,0005.09,0002.75,0002.51
2024-01-25 08:05:00,SystemResetWarning,0826.6,5.00,000.00,022.4,021.5,000.0,030.8,023.8,15.5,0000.0,0005.35,0002.77,0002.51
2024-01-25 08:06:00,SystemResetWarning,0826.5,5.00,000.00,022.4,021.5,000.0,030.8,023.8,15.5,0000.0,0005.30,0002.75,0002.49
2024-01-25 08:07:00,SystemResetWarning,0826.5,4.99,000.00,022.4,021.5,000.0,030.8,023.8,15.5,0000.0,0005.63,0002.86,0002.57
2024-01-25 08:08:00,SystemResetWarning,0826.5,5.00,000.00,022.4,021.5,000.0,030.8,023.8,15.5,0000.0,0005.44,0003.04,0002.73
2024-01-25 08:09:00,SystemResetWarning,0826.6,5.00,000.00,022.4,021.5,000.0,030.8,023.8,15.4,0000.0,0005.70,0003.19,0002.94
2024-01-25 08:10:00,SystemResetWarning,0826.6,5.00,000.00,022.4,021.5,000.0,030.8,023.8,15.4,0000.0,0005.99,0003.32,0003.13
2024-01-25 08:11:00,SystemResetWarning,0826.6,5.01,000.00,022.4,021.5,000.0,030.8,023.8,15.4,0000.0,0006.16,0003.42,0003.22
2024-01-25 08:12:00,SystemResetWarning,0826.5,5.00,000.00,022.4,021.5,000.0,030.8,023.8,15.4,0000.0,0006.18,0003.46,0003.27
2024-01-25 08:13:00,SystemResetWarning,0826.4,5.00,000.00,022.4,021.5,000.0,030.8,023.8,15.4,0000.0,0005.44,0003.44,0003.25
2024-01-25 08:14:00,SystemResetWarning,0826.4,5.00,000.00,022.4,021.5,000.0,030.8,023.8,15.5,0000.0,0005.51,0003.45,0003.27
2024-01-25 08:15:00,SystemResetWarning,0826.4,5.00,000.00,022.4,021.5,000.0,030.7,023.8,15.6,0000.0,0005.66,0003.49,0003.30
2024-01-25 08:16:00,SystemResetWarning,0826.3,5.00,000.00,022.4,021.5,000.0,030.7,023.8,15.5,0000.0,0005.85,0003.58,0003.38
2024-01-25 08:17:00,SystemResetWarning,0826.4,4.99,000.00,022.4,021.5,000.0,030.7,023.7,15.5,0000.0,0006.07,0003.72,0003.49
2024-01-25 08:18:00,SystemResetWarning,0826.4,5.00,000.00,022.3,021.5,000.0,030.7,023.8,15.5,0000.0,0006.16,0003.80,0003.57
2024-01-25 08:19:00,SystemResetWarning,0826.4,5.00,000.00,022.3,021.5,000.0,030.7,023.8,15.5,0000.0,0006.26,0003.86,0003.64
2024-01-25 08:20:00,SystemResetWarning,0826.4,5.00,000.00,022.3,021.4,000.0,030.7,023.7,15.5,0000.0,0006.05,0003.84,0003.63
2024-01-25 08:21:00,SystemResetWarning,0826.5,5.00,000.00,022.3,021.4,000.0,030.7,023.7,15.5,0000.0,0005.78,0003.77,0003.56
2024-01-25 08:22:00,SystemResetWarning,0826.5,5.00,000.00,022.3,021.4,000.0,030.7,023.7,15.5,0000.0,0005.82,0003.74,0003.53
2024-01-25 08:23:00,SystemResetWarning,0826.5,5.00,000.00,022.3,021.4,000.0,030.7,023.6,15.6,0000.0,0005.99,0003.83,0003.62
2024-01-25 08:24:00,SystemResetWarning,0826.5,5.00,000.00,022.3,021.4,000.0,030.7,023.6,15.6,0000.0,0006.32,0003.99,0003.76
2024-01-25 08:25:00,SystemResetWarning,0826.4,5.01,000.00,022.3,021.4,000.0,030.7,023.7,15.5,0000.0,0006.72,0004.19,0003.93
2024-01-25 08:26:00,SystemResetWarning,0826.4,5.00,000.00,022.3,021.4,000.0,030.7,023.7,15.5,0000.0,0006.99,0004.39,0004.13
2024-01-25 08:27:00,SystemResetWarning,0826.5,5.00,000.00,022.3,021.4,000.0,030.7,023.7,15.5,0000.0,0007.23,0004.53,0004.27
2024-01-25 08:28:00,SystemResetWarning,0826.6,5.00,000.00,022.3,021.4,000.0,030.7,023.7,15.5,0000.0,0007.33,0004.59,0004.35
2024-01-25 08:29:00,SystemResetWarning,0826.6,5.00,000.00,022.3,021.4,000.0,030.7,023.7,15.5,0000.0,0007.78,0004.64,0004.40
2024-01-25 08:30:00,SystemResetWarning,0826.6,5.00,000.00,022.3,021.4,000.0,030.7,023.7,15.5,0000.0,0007.88,0004.73,0004.46
2024-01-25 08:31:00,SystemResetWarning,0826.6,4.99,000.00,022.3,021.4,000.0,030.7,023.6,15.5,0000.0,0008.10,0004.86,0004.55
2024-01-25 08:32:00,SystemResetWarning,0826.6,5.00,000.00,022.2,021.4,000.0,030.7,023.6,15.5,0000.0,0008.43,0005.00,0004.67
2024-01-25 08:33:00,SystemResetWarning,0826.6,5.00,000.00,022.2,021.3,000.0,030.7,023.6,15.5,0000.0,0008.97,0005.07,0004.73
2024-01-25 08:34:00,SystemResetWarning,0826.6,5.00,000.00,022.2,021.3,000.0,030.7,023.6,15.5,0000.0,0008.97,0005.05,0004.72
2024-01-25 08:35:00,SystemResetWarning,0826.6,5.00,000.00,022.2,021.3,000.0,030.6,023.6,15.5,0000.0,0009.60,0005.03,0004.70
2024-01-25 08:36:00,SystemResetWarning,0826.6,5.00,000.00,022.2,021.3,000.0,030.6,023.6,15.5,0000.0,0010.17,0005.00,0004.67
2024-01-25 08:37:00,SystemResetWarning,0826.6,5.01,000.00,022.2,021.3,000.0,030.6,023.6,15.6,0000.0,0010.17,0004.97,0004.64
2024-01-25 08:38:00,SystemResetWarning,0826.6,5.00,000.00,022.2,021.3,000.0,030.6,023.6,15.6,0000.0,0010.05,0004.92,0004.60
2024-01-25 08:39:00,SystemResetWarning,0826.6,5.00,000.00,022.2,021.3,000.0,030.6,023.6,15.6,0000.0,0010.09,0004.90,0004.59
2024-01-25 08:40:00,SystemResetWarning,0826.6,5.00,000.00,022.2,021.3,000.0,030.6,023.6,15.7,0000.0,0009.81,0004.92,0004.60
2024-01-25 08:41:00,SystemResetWarning,0826.6,5.00,000.00,022.2,021.3,000.0,030.6,023.6,15.7,0000.0,0009.63,0004.89,0004.58
2024-01-25 08:42:00,SystemResetWarning,0826.6,5.00,000.00,022.2,021.3,000.0,030.6,023.6,15.6,0000.0,0009.50,0004.83,0004.54
2024-01-25 08:43:00,SystemResetWarning,0826.6,5.00,000.00,022.2,021.3,000.0,030.6,023.6,15.6,0000.0,0009.79,0004.79,0004.54
2024-01-25 08:44:00,SystemResetWarning,0826.6,5.00,000.00,022.2,021.3,000.0,030.6,023.6,15.7,0000.0,0009.27,0004.79,0004.55
2024-01-25 08:45:00,SystemResetWarning,0826.6,5.00,000.00,022.2,021.3,000.0,030.6,023.6,15.7,0000.0,0009.23,0004.79,0004.55
2024-01-25 08:46:00,SystemResetWarning,0826.6,5.00,000.00,022.2,021.3,000.0,030.6,023.6,15.7,0000.0,0008.69,0004.80,0004.56
2024-01-25 08:47:00,SystemResetWarning,0826.6,5.01,000.00,022.2,021.3,000.0,030.6,023.6,15.7,0000.0,0008.00,0004.80,0004.56
2024-01-25 08:48:00,SystemResetWarning,0826.6,5.00,000.00,022.2,021.3,000.0,030.6,023.6,15.7,0000.0,0007.92,0004.80,0004.56
2024-01-25 08:49:00,SystemResetWarning,0826.6,5.00,000.00,022.2,021.3,000.0,030.6,023.6,15.7,0000.0,0007.89,0004.78,0004.52
2024-01-25 08:50:00,SystemResetWarning,0826.6,5.00,000.00,022.2,021.3,000.0,030.6,023.5,15.7,0000.0,0007.73,0004.74,0004.49
2024-01-25 08:51:00,SystemResetWarning,0826.6,5.00,000.00,022.2,021.3,000.0,030.6,023.5,15.7,0000.0,0007.66,0004.69,0004.45
2024-01-25 08:52:00,SystemResetWarning,0826.6,5.00,000.00,022.2,021.3,000.0,030.6,023.5,15.8,0000.0,0007.62,0004.67,0004.43
2024-01-25 08:53:00,SystemResetWarning,0826.6,5.00,000.00,022.1,021.2,000.0,030.6,023.5,15.8,0000.0,0007.66,0004.67,0004.42
2024-01-25 08:54:00,SystemResetWarning,0826.6,5.00,000.00,022.1,021.2,000.0,030.5,023.5,15.8,0000.0,0007.17,0004.66,0004.39
2024-01-25 08:55:00,SystemResetWarning,0826.6,5.00,000.00,022.1,021.2,000.0,030.5,023.5,15.8,0000.0,0007.12,0004.66,0004.37
2024-01-25 08:56:00,SystemResetWarning,0826.6,5.00,000.00,022.1,021.2,000.0,030.5,023.5,15.8,0000.0,0007.13,0004.66,0004.35
2024-01-25 08:57:00,SystemResetWarning,0826.6,5.00,000.00,022.1,021.2,000.0,030.5,023.5,15.9,0000.0,0007.07,0004.64,0004.33
2024-01-25 08:58:00,SystemResetWarning,0826.7,4.99,000.00,022.1,021.2,000.0,030.5,023.5,15.9,0000.0,0007.48,0004.62,0004.31
2024-01-25 08:59:00,SystemResetWarning,0826.7,4.99,000.00,022.1,021.2,000.0,030.5,023.5,16.0,0000.0,0007.67,0004.59,0004.28
